Regional Weather Roundup
Issued by NWS Austin/San Antonio, TX

Home | Current Version | Previous Version | Text Only | Print | Product List | Glossary On
Versions: 1 2 3 4 5 6 7 8 9 10 11 12 13 14 15 16 17 18 19 20 21 22 23 24 25 26 27 28 29 30 31 32 33 34 35 36 37 38 39 40 41 42 43 44 45 46 47 48 49 50
047
ASUS44 KEWX 201301
RWREWX
SOUTH TEXAS REGIONAL WEATHER ROUNDUP
NATIONAL WEATHER SERVICE AUSTIN/SAN ANTONIO TX
800 AM CDT FRI OCT 20 2017

NOTE: "FAIR" INDICATED FEW OR NO CLOUDS BELOW 12,000 FEET WITH NO
SIGNIFICANT WEATHER AND/OR OBSTRUCTIONS TO VISIBILITY.

* - THESE STATIONS ARE NOT NWS OR FAA STATIONS...AND ARE NOT SUBJECT
    TO NWS AND FAA QUALITY CONTROL.

TXZ171-172-183>190-201400-
TEXAS HILL COUNTRY AND EDWARDS PLATEAU

CITY           SKY/WX    TMP DP  RH WIND       PRES   REMARKS
JUNCTION       LGT RAIN  66  62  87 CALM      30.08R
*LLANO         CLOUDY    63  61  94 CALM      30.09S
BURNET           N/A     65  61  87 CALM      30.09R
*HORSESHOE BAY CLOUDY    63  63 100 CALM      30.07R
*KERRVILLE     CLOUDY    61  60  96 CALM      30.06S
*FREDERICKSBRG CLOUDY    64  62  93 CALM      30.06S FOG
*ROCKSPRINGS   NOT AVBL
*BOERNE STAGE  CLOUDY    63  63 100 CALM      30.06S
*CASTROVILLE   CLOUDY    69  67  92 E5        30.04S
HONDO          CLOUDY    69  65  86 SE7       30.03F
*UVALDE        CLOUDY    67  64  91 E3        30.04S
DEL RIO        CLOUDY    67  67 100 E3        30.02S FOG
LAUGHLIN AFB   DRIZZLE   67  64  91 E3        30.03R FOG
CARRIZO SPRGS  CLOUDY    68  68 100 SE3       30.00S
*EAGLE PASS    NOT AVBL
$$

TXZ173-191>194-202-209-217>225-228-201400-
CENTRAL AND SOUTH CENTRAL TEXAS

CITY           SKY/WX    TMP DP  RH WIND       PRES   REMARKS
GEORGETOWN     CLOUDY    63  60  90 NE5       30.07S
AUSTIN/BERGSTM CLOUDY    67  64  90 E6        30.04R
AUSTIN/MABRY   CLOUDY    69  62  78 CALM      30.05S
*AUSTIN/EXEC   CLOUDY    64  63  94 NE3       30.06R
*LAGO VISTA    CLOUDY    66  63  90 CALM      30.06S
SAN MARCOS     CLOUDY    68  63  84 NE5       30.04S
NEW BRAUNFELS  CLOUDY    68  65  90 NE5       30.02S FOG
RANDOLPH AFB   NOT AVBL
PT SAN ANTONIO CLOUDY    70  66  89 E6        30.02R
SAN ANTONIO    CLOUDY    69  65  86 E5        30.04S
STINSON FIELD  CLOUDY    71  67  87 E7        30.01S
*LA GRANGE     CLOUDY    70  69  96 CALM      30.02R
*GIDDINGS      CLOUDY    66  63  90 E3        30.05S
*GONZALES      CLOUDY    69  69 100 CALM      30.03R
$$

TXZ163>164-176>182-195>201-210>213-226-227-235-201400-
SOUTHEAST TEXAS

CITY           SKY/WX    TMP DP  RH WIND       PRES   REMARKS
COLLEGE STN    CLOUDY    68  65  90 N5        30.03F
*BRYAN         CLOUDY    65  65 100 CALM      30.05F
*CALDWELL      CLOUDY    66  63  90 N5        30.06S
*CROCKETT        N/A     66  63  88 CALM      30.11R
*BRENHAM       CLOUDY    69  68  97 CALM      30.04F
HUNTSVILLE     LGT RAIN  71  67  87 E3        30.05S
CONROE         CLOUDY    70  70 100 SE10      30.05S
HOUSTON BUSH   CLOUDY    70  67  90 E9        30.04F
HOUSTON HOBBY  MOCLDY    74  71  91 NE7       30.03F
*HOUSTON SW AP CLOUDY    70  69  96 E3        30.04S
PEARLAND       CLOUDY    74  70  87 NE5       30.05S
HOUSTON HOOKS  MOCLDY    71  68  90 E8        30.05S
ELLINGTON FLD  NOT AVBL
SUGAR LAND     CLOUDY    73  70  90 E7        30.03F
*HOUSTON EXEC  PTCLDY    70  68  94 E7        30.04F FOG
*CLEVELAND MUN MOCLDY    68  66  94 CALM      30.07S
*WHARTON       CLEAR     70  68  95 CALM      30.03S
*COLUMBUS      MOCLDY    69  68  95 W6        30.04S FOG
*EAGLE LAKE    CLOUDY    70  70 100 CALM      30.03R FOG
$$

TXZ214>216-236>238-201400-
THE UPPER TEXAS COAST

CITY           SKY/WX    TMP DP  RH WIND       PRES   REMARKS
*ORANGE        CLOUDY    72  69  90 E10G16    30.11R
PORT ARTHUR    CLOUDY    72  68  87 E13       30.07R
GALVESTON      CLOUDY    78  74  87 SE17      30.04S
ANGLETON       MOCLDY    74  72  93 E7        30.02S
*BAY CITY      PTCLDY    71  71 100 CALM      30.02S
PALACIOS       MOCLDY    67  67 100 N3        30.00F FOG
$$

TXZ229>234-239>247-201400-
TEXAS COASTAL BEND AND RIO GRANDE PLAINS

CITY           SKY/WX    TMP DP  RH WIND       PRES   REMARKS
VICTORIA       MOCLDY    70  68  93 NE5       30.02S FOG
*BEEVILLE      FOG      N/A N/A N/A E7        30.00S VSB 1/4
ROCKPORT       MOCLDY    72  71  97 CALM      30.00S FOG
*PORT ARANSAS  NOT AVBL
*PORT LAVACA   CLEAR     69  67  95 NE5       30.02R FOG
*INGLESIDE     NOT AVBL
CORPUS CHRISTI MOCLDY    70  70 100 NE5       30.00R
CORPUS NAS     NOT AVBL
*ROBSTOWN      MOCLDY    69  68  98 CALM      30.00S
ALICE          FOG       70  69  97 CALM      29.99S VSB<1/4
KINGSVILLE NAS NOT AVBL
COTULLA        CLOUDY    70  65  84 E6        30.01R
*FAITH RANCH   CLOUDY    70  70 100 E3        30.01S
LAREDO         CLOUDY    68  67  96 E5        30.01R
$$

TXZ248>255-201400-
DEEP SOUTH TEXAS

CITY           SKY/WX    TMP DP  RH WIND       PRES   REMARKS
BROWNSVILLE    CLEAR     70  69  97 NE3       29.98R
PORT ISABEL    CLEAR     71  70  96 NE5       29.98R FOG
*SOUTH PADRE   NOT AVBL
HARLINGEN      CLEAR     68  68 100 E5        29.98R FOG
*HEBBRONVILLE  CLOUDY    69  67  96 CALM      30.00F FOG
MCALLEN        CLEAR     73  70  90 E3        29.99R
*WESLACO       CLEAR     68  67  97 CALM      29.98R
FALFURRIAS     CLOUDY    71  69  96 CALM      30.00R VSB 1/2
EDINBURG       FOG       68  66  94 CALM      29.99S VSB<1/4
*ZAPATA        CLOUDY    70  70  99 CALM      29.99S
$$

TXZ213>215-236>238-242>244-246-247-251-254-255-201400-
CMAN STATIONS

STATION/POSITION TIME  TEMP    WIND        PRES    WAVE
                       AIR SEA DIR/SP/G            HT/PER
                 (UTC) (F)     (DEG/KT/KT) (MB)    (FT/S)
SABINE PASS      1230   76 78  100/ 16/ 20 1019.1
SEA RIM ST PARK  1200   76     100/ 15/ 20 1018.1
NORTH JETTY/GLS  1230      76  130/  5/ 10 1016.8
EAGLE POINT      1230   74 74  120/  7/  8 1017.2
MORGANS POINT    1230   73 77   60/  4/  5 1017.3
PORT O`CONNOR    1230   75 75   10/  4/  4 1015.5
MALAQUITE BEACH  1224   74 78  300/  2/  4 1015.3
BAFFIN BAY       1224   73 76  360/  3/  3 1015.8
PORT ISABEL      1224   73 78   20/  1/  1 1014.8
$$




USA.gov is the U.S. government's official web portal to all federal, state and local government web resources and services.